Cloud_Cover
97 99 34 86 82 59 79 100 100 100 94 88 80 100 100 98 100 100 100 100 100 100
5 7 6 56 6 61 26 94 99 99 100 100 100 100 100 96 100 100 100 100 100 100
0 2 2 0 0 2 3 12 70 17 77 100 100 90 91 100 94 100 100 98 97 100
0 0 0 0 0 0 0 2 23 84 89 5 11 75 84 5 76 11 97 96 56 99
0 0 0 0 0 0 0 0 0 0 0 0 1 91 94 0 0 0 5 100 100 99
0 0 0 0 0 0 1 2 3 1 0 0 0 0 0 0 0 0 0 0 4 3
0 0 0 0 2 5 5 5 5 3 0 0 0 0 0 0 0 0 0 0 0 0
0 0 1 5 5 5 5 0 0 0 0 0 0 0 3 5 5 5 5 5 5 5
4 5 5 5 0 0 0 0 0 0 0 0 0 2 5 58 41 41 99 100 64 6
5 5 4 0 0 0 0 0 0 0 0 0 0 5 53 94 90 48 41 78 97 100
4 5 0 0 0 0 0 0 0 0 3 5 4 5 44 98 100 100 100 100 100 100
4 5 4 5 4 0 5 5 5 5 5 5 5 6 92 100 100 100 100 100 100 100
5 5 5 5 5 5 5 5 5 5 5 5 5 5 83 100 100 100 100 100 73 83
8 5 5 5 5 5 5 5 5 5 5 5 5 5 53 100 100 100 100 100 100 94